FW6938 Weather Reports


time (UTC)temp
C
wind
direction
speed
KPH
gust
KPH
rain 1hr
cm
rain 24hr
cm
rain mn
cm
humidity
%
barometer
mb
20260505024538 16 0 0.0 9.7 0.00 0.00 0.00 41 1009.3
20260505023030 17 92 1.6 14.5 0.00 0.00 0.00 39 1008.9
20260505021533 17 51 1.6 14.5 0.00 0.00 0.00 42 1009.2
20260505020034 17 26 3.2 12.9 0.00 0.00 0.00 40 1009.0
20260505014536 17 26 1.6 11.3 0.00 0.00 0.00 38 1008.8
20260505013029 18 0 0.0 3.2 0.00 0.00 0.00 38 1008.9
20260505011535 18 0 0.0 8.0 0.00 0.00 0.00 39 1009.1
20260505010032 18 183 0.0 9.7 0.00 0.00 0.00 37 1009.1
20260505004544 18 155 4.8 17.7 0.00 0.00 0.00 38 1009.2
20260505003032 18 0 0.0 11.3 0.00 0.00 0.00 37 1009.2
20260505001532 18 0 3.2 9.7 0.00 0.00 0.00 35 1009.2
20260505000047 18 181 1.6 8.0 0.00 0.00 0.00 37 1009.2
20260504234531 18 71 3.2 14.5 0.00 0.00 0.00 36 1009.1
20260504233030 19 113 6.4 20.9 0.00 0.00 0.00 35 1009.0
20260504231531 19 88 6.4 24.1 0.00 0.00 0.00 37 1008.8
20260504230030 18 86 11.3 24.1 0.00 0.00 0.00 35 1009.0
20260504224529 18 107 12.9 29.0 0.00 0.00 0.00 36 1009.1
20260504223031 20 32 4.8 20.9 0.00 0.00 0.00 35 1009.4
20260504221535 20 330 3.2 17.7 0.00 0.00 0.00 35 1009.4
20260504220032 18 335 1.6 25.7 0.00 0.00 0.00 36 1009.7
20260504214534 21 61 3.2 9.7 0.00 0.00 0.00 32 1009.7
20260504213029 22 242 1.6 19.3 0.00 0.00 0.00 27 1009.6
20260504211530 22 277 4.8 16.1 0.00 0.00 0.00 30 1009.4
20260504210032 23 173 4.8 19.3 0.00 0.00 0.00 28 1009.4
20260504204534 22 219 4.8 14.5 0.00 0.00 0.00 27 1009.4
20260504203030 22 252 1.6 11.3 0.00 0.00 0.00 27 1009.6
20260504201530 22 216 4.8 12.9 0.00 0.00 0.00 26 1009.8
20260504200032 22 272 3.2 17.7 0.00 0.00 0.00 30 1010.0
20260504194530 22 99 3.2 14.5 0.00 0.00 0.00 33 1010.1
20260504193031 21 240 4.8 16.1 0.00 0.00 0.00 31 1010.3
20260504191531 21 248 6.4 14.5 0.00 0.00 0.00 30 1010.3
20260504190030 21 225 3.2 12.9 0.00 0.00 0.00 30 1010.8
20260504184532 21 167 3.2 14.5 0.00 0.00 0.00 31 1011.0
20260504183029 21 164 3.2 11.3 0.00 0.00 0.00 32 1011.1
20260504181532 21 244 3.2 12.9 0.00 0.00 0.00 33 1011.3
20260504180029 21 165 3.2 12.9 0.00 0.00 0.00 33 1011.5
20260504174530 20 200 1.6 11.3 0.00 0.00 0.00 35 1011.6
20260504173034 20 291 0.0 11.3 0.00 0.00 0.00 35 1011.8
20260504171532 20 214 1.6 9.7 0.00 0.00 0.00 36 1011.8
20260504081531 13 0 0.0 9.7 0.00 0.00 0.00 37 1012.5
20260504044532 12 0 0.0 0.0 0.00 0.00 0.00 36 1011.9
20260504043029 12 0 0.0 0.0 0.00 0.00 0.00 38 1012.2
20260504041529 13 0 0.0 0.0 0.00 0.00 0.00 38 1012.0
20260504040034 14 0 0.0 0.0 0.00 0.00 0.00 35 1011.8
20260504034531 15 0 0.0 1.6 0.00 0.00 0.00 32 1011.8
20260504033032 15 0 0.0 0.0 0.00 0.00 0.00 34 1011.8
20260504031532 16 0 0.0 0.0 0.00 0.00 0.00 33 1011.7
20260504030030 16 0 0.0 0.0 0.00 0.00 0.00 29 1011.7